Voltar ao catálogo

COSMOS 2251 DEB

AtivoLEO
NORAD 37336·DEBRIS·🇷🇺 Russia

Lançado Jun 16, 1993 de Plesetsk Cosmodrome

Loading…

Próximas Passagens (próximas 24 horas)

TLE

EnvelhecendoSource: Space-Track

Época: Sep 12, 2026, 04:39 UTC

1 37336U 93036BLC 26255.19403023  .00000068  00000-0  34181-4 0  9990
2 37336  74.0418 191.9539 0030453 206.7574 153.2008 14.32852253690369

Acompanhe COSMOS 2251 DEB em tempo real com AllMySat

Download on the App Store